Time,TemperatureF,DewpointF,PressureIn,WindDirection,WindDirectionDegrees,WindSpeedMPH,WindSpeedGustMPH,Humidity,HourlyPrecipIn,Conditions,Clouds,dailyrainin,SoftwareType,DateUTC
2013-09-26 00:12:00,70.0,28.0,29.61,South,172,3.0,-999.0,21,-99.99,,,-99.99,,2013-09-26 06:12:00,
2013-09-26 00:22:00,70.0,27.0,29.62,South,172,1.0,-999.0,20,-99.99,,,-99.99,,2013-09-26 06:22:00,
2013-09-26 00:53:00,62.0,34.0,29.63,South,172,1.0,-999.0,35,-99.99,,,-99.99,,2013-09-26 06:53:00,
2013-09-26 01:12:00,61.0,36.0,29.63,SSE,149,4.0,-999.0,39,-99.99,,,-99.99,,2013-09-26 07:12:00,
2013-09-26 01:22:00,58.0,41.0,29.65,SE,146,3.0,-999.0,54,-99.99,,,-99.99,,2013-09-26 07:22:00,
2013-09-26 01:42:00,57.0,42.0,29.65,ESE,110,4.0,-999.0,58,-99.99,,,-99.99,,2013-09-26 07:42:00,
2013-09-26 01:53:00,56.0,41.0,29.67,ESE,104,4.0,-999.0,56,-99.99,,,-99.99,,2013-09-26 07:53:00,
2013-09-26 02:11:00,55.0,40.0,29.67,ESE,102,4.0,-999.0,57,-99.99,,,-99.99,,2013-09-26 08:11:00,
2013-09-26 02:22:00,54.0,40.0,29.69,East,91,5.0,-999.0,58,-99.99,,,-99.99,,2013-09-26 08:22:00,
2013-09-26 02:52:00,53.0,40.0,29.71,East,91,1.0,-999.0,62,-99.99,,,-99.99,,2013-09-26 08:52:00,
2013-09-26 03:11:00,52.0,40.0,29.71,East,91,2.0,-999.0,63,-99.99,,,-99.99,,2013-09-26 09:11:00,
2013-09-26 03:22:00,52.0,41.0,29.72,East,91,1.0,-999.0,65,-99.99,,,-99.99,,2013-09-26 09:22:00,
2013-09-26 03:43:00,52.0,41.0,29.72,East,91,1.0,-999.0,65,-99.99,,,-99.99,,2013-09-26 09:43:00,
2013-09-26 03:54:00,52.0,40.0,29.74,East,91,1.0,-999.0,64,-99.99,,,-99.99,,2013-09-26 09:54:00,
2013-09-26 04:12:00,51.0,40.0,29.74,East,91,0.0,-999.0,65,-99.99,,,-99.99,,2013-09-26 10:12:00,
2013-09-26 04:23:00,51.0,40.0,29.76,East,91,0.0,-999.0,65,-99.99,,,-99.99,,2013-09-26 10:23:00,
2013-09-26 04:42:00,51.0,40.0,29.76,East,91,0.0,-999.0,65,-99.99,,,-99.99,,2013-09-26 10:42:00,
2013-09-26 04:53:00,50.0,39.0,29.78,East,91,0.0,-999.0,66,-99.99,,,-99.99,,2013-09-26 10:53:00,
2013-09-26 05:12:00,50.0,39.0,29.78,East,91,0.0,-999.0,66,-99.99,,,-99.99,,2013-09-26 11:12:00,
2013-09-26 05:22:00,50.0,39.0,29.79,East,91,0.0,-999.0,65,-99.99,,,-99.99,,2013-09-26 11:22:00,
2013-09-26 05:52:00,49.0,39.0,29.81,East,91,1.0,-999.0,67,-99.99,,,-99.99,,2013-09-26 11:52:00,
2013-09-26 06:12:00,49.0,38.0,29.81,East,91,1.0,-999.0,66,-99.99,,,-99.99,,2013-09-26 12:12:00,
2013-09-26 06:22:00,50.0,39.0,29.82,East,91,1.0,-999.0,66,-99.99,,,-99.99,,2013-09-26 12:22:00,
2013-09-26 06:42:00,50.0,39.0,29.82,East,91,0.0,-999.0,65,-99.99,,,-99.99,,2013-09-26 12:42:00,
2013-09-26 06:52:00,49.0,38.0,29.83,East,91,1.0,-999.0,66,-99.99,,,-99.99,,2013-09-26 12:52:00,
2013-09-26 07:11:00,49.0,38.0,29.83,East,91,1.0,-999.0,65,-99.99,,,-99.99,,2013-09-26 13:11:00,
2013-09-26 07:22:00,49.0,38.0,29.84,East,91,1.0,-999.0,66,-99.99,,,-99.99,,2013-09-26 13:22:00,
2013-09-26 07:52:00,50.0,39.0,29.85,East,91,0.0,-999.0,65,-99.99,,,-99.99,,2013-09-26 13:52:00,
2013-09-26 08:11:00,51.0,39.0,29.85,East,91,0.0,-999.0,64,-99.99,,,-99.99,,2013-09-26 14:11:00,
2013-09-26 08:22:00,53.0,39.0,29.85,East,91,0.0,-999.0,59,-99.99,,,-99.99,,2013-09-26 14:22:00,
2013-09-26 08:42:00,53.0,38.0,29.85,SSE,164,0.0,-999.0,57,-99.99,,,-99.99,,2013-09-26 14:42:00,
2013-09-26 08:52:00,54.0,39.0,29.85,SSE,163,0.0,-999.0,56,-99.99,,,-99.99,,2013-09-26 14:52:00,
2013-09-26 09:11:00,54.0,38.0,29.85,SSE,163,0.0,-999.0,55,-99.99,,,-99.99,,2013-09-26 15:11:00,
2013-09-26 09:22:00,55.0,39.0,29.86,SSW,199,0.0,-999.0,55,-99.99,,,-99.99,,2013-09-26 15:22:00,
2013-09-26 09:54:00,55.0,39.0,29.86,SE,126,1.0,-999.0,54,-99.99,,,-99.99,,2013-09-26 15:54:00,
2013-09-26 10:13:00,56.0,38.0,29.86,SE,137,1.0,-999.0,51,-99.99,,,-99.99,,2013-09-26 16:13:00,
2013-09-26 10:24:00,56.0,38.0,29.86,SE,137,1.0,-999.0,50,-99.99,,,-99.99,,2013-09-26 16:24:00,
2013-09-26 10:43:00,56.0,38.0,29.86,SE,137,2.0,-999.0,51,-99.99,,,-99.99,,2013-09-26 16:43:00,
2013-09-26 10:53:00,56.0,39.0,29.85,SE,137,1.0,-999.0,52,-99.99,,,-99.99,,2013-09-26 16:53:00,
2013-09-26 11:23:00,57.0,39.0,29.84,ENE,58,3.0,-999.0,50,-99.99,,,-99.99,,2013-09-26 17:23:00,
2013-09-26 11:52:00,57.0,39.0,29.84,NE,54,5.0,-999.0,51,-99.99,,,-99.99,,2013-09-26 17:52:00,
2013-09-26 12:13:00,57.0,39.0,29.84,NE,50,5.0,-999.0,51,-99.99,,,-99.99,,2013-09-26 18:13:00,
2013-09-26 12:22:00,59.0,43.0,29.83,NE,50,4.0,-999.0,55,-99.99,,,-99.99,,2013-09-26 18:22:00,
2013-09-26 12:52:00,60.0,41.0,29.83,NE,50,3.0,-999.0,50,-99.99,,,-99.99,,2013-09-26 18:52:00,
2013-09-26 13:12:00,60.0,40.0,29.83,NE,50,2.0,-999.0,47,-99.99,,,-99.99,,2013-09-26 19:12:00,
2013-09-26 13:22:00,60.0,40.0,29.82,NE,50,3.0,-999.0,48,-99.99,,,-99.99,,2013-09-26 19:22:00,
2013-09-26 13:52:00,61.0,41.0,29.81,NE,46,2.0,-999.0,48,-99.99,,,-99.99,,2013-09-26 19:52:00,
2013-09-26 14:12:00,61.0,41.0,29.81,NE,46,2.0,-999.0,48,-99.99,,,-99.99,,2013-09-26 20:12:00,
2013-09-26 14:22:00,62.0,40.0,29.80,NE,46,1.0,-999.0,45,-99.99,,,-99.99,,2013-09-26 20:22:00,
2013-09-26 14:42:00,62.0,41.0,29.80,NE,46,3.0,-999.0,46,-99.99,,,-99.99,,2013-09-26 20:42:00,
2013-09-26 14:52:00,64.0,42.0,29.80,NE,46,2.0,-999.0,44,-99.99,,,-99.99,,2013-09-26 20:52:00,
2013-09-26 15:23:00,64.0,41.0,29.80,NE,47,4.0,-999.0,43,-99.99,,,-99.99,,2013-09-26 21:23:00,
2013-09-26 15:54:00,64.0,42.0,29.80,NE,47,3.0,-999.0,44,-99.99,,,-99.99,,2013-09-26 21:54:00,
2013-09-26 16:24:00,65.0,43.0,29.79,NE,46,4.0,-999.0,45,-99.99,,,-99.99,,2013-09-26 22:24:00,
2013-09-26 16:54:00,65.0,42.0,29.79,NE,46,4.0,-999.0,43,-99.99,,,-99.99,,2013-09-26 22:54:00,
2013-09-26 17:12:00,65.0,42.0,29.79,NE,46,3.0,-999.0,43,-99.99,,,-99.99,,2013-09-26 23:12:00,
2013-09-26 17:23:00,66.0,43.0,29.77,NE,46,2.0,-999.0,43,-99.99,,,-99.99,,2013-09-26 23:23:00,
2013-09-26 17:53:00,66.0,43.0,29.77,NE,46,3.0,-999.0,43,-99.99,,,-99.99,,2013-09-26 23:53:00,
2013-09-26 18:22:00,65.0,44.0,29.77,NE,53,4.0,-999.0,46,-99.99,,,-99.99,,2013-09-27 00:22:00,
2013-09-26 18:52:00,63.0,44.0,29.78,North,5,8.0,-999.0,50,-99.99,,,-99.99,,2013-09-27 00:52:00,
2013-09-26 19:11:00,63.0,45.0,29.78,North,351,7.0,-999.0,51,-99.99,,,-99.99,,2013-09-27 01:11:00,
2013-09-26 19:23:00,62.0,45.0,29.78,North,350,3.0,-999.0,53,-99.99,,,-99.99,,2013-09-27 01:23:00,
2013-09-26 19:42:00,62.0,45.0,29.78,North,350,4.0,-999.0,53,-99.99,,,-99.99,,2013-09-27 01:42:00,
2013-09-26 19:52:00,61.0,45.0,29.78,North,350,2.0,-999.0,55,-99.99,,,-99.99,,2013-09-27 01:52:00,
2013-09-26 20:22:00,60.0,45.0,29.80,North,350,3.0,-999.0,58,-99.99,,,-99.99,,2013-09-27 02:22:00,
2013-09-26 20:42:00,60.0,45.0,29.80,North,350,2.0,-999.0,58,-99.99,,,-99.99,,2013-09-27 02:42:00,
2013-09-26 20:53:00,60.0,46.0,29.80,North,350,2.0,-999.0,59,-99.99,,,-99.99,,2013-09-27 02:53:00,
2013-09-26 21:22:00,59.0,44.0,29.80,North,350,2.0,-999.0,58,-99.99,,,-99.99,,2013-09-27 03:22:00,
2013-09-26 21:55:00,59.0,44.0,29.80,North,350,0.0,-999.0,58,-99.99,,,-99.99,,2013-09-27 03:55:00,
2013-09-26 22:24:00,58.0,45.0,29.80,North,350,1.0,-999.0,61,-99.99,,,-99.99,,2013-09-27 04:24:00,
2013-09-26 22:44:00,58.0,45.0,29.80,North,350,2.0,-999.0,61,-99.99,,,-99.99,,2013-09-27 04:44:00,
2013-09-26 22:54:00,57.0,44.0,29.80,North,350,1.0,-999.0,61,-99.99,,,-99.99,,2013-09-27 04:54:00,
2013-09-26 23:12:00,57.0,45.0,29.80,North,350,2.0,-999.0,63,-99.99,,,-99.99,,2013-09-27 05:12:00,
2013-09-26 23:23:00,56.0,44.0,29.80,North,350,0.0,-999.0,64,-99.99,,,-99.99,,2013-09-27 05:23:00,
2013-09-26 23:52:00,55.0,44.0,29.78,North,350,2.0,-999.0,66,-99.99,,,-99.99,,2013-09-27 05:52:00,